Cosmos 1816 Rocket - Orbit

View from above orbital plane
View from above orbital plane
View from above satellite
View from above satellite

Ground track
Ground track

The orbit data is extracted from the following two-line orbital elements,

1 17360U 87009B   13141.57999682  .00000075  00000-0  60239-4 0  3389
2 17360 082.9191 296.5960 0032801 033.6786 021.0017 13.76552664321522
Epoch (UTC): 21 May 2013 13:55:11
Eccentricity: 0.0032801
inclination: 82.9191°
perigee height: 952 km
apogee height: 1000 km
right ascension of ascending node: 296.5960°
argument of perigee: 33.6786°
revolutions per day: 13.76552664
mean anomaly at epoch: 21.0017°
orbit number at epoch: 32152

The dashed part of the orbit path shows where the satellite is in the earth's shadow,  

Developed and maintained by Chris Peat, Heavens-Above GmbH. Please read the updated FAQ before sending e-mail. Imprint. DLR